Find Starlink 32437

NORAD ID: 63001 Int'l Des: 2025-031 Owner: SPXS Country: US Constellation: starlink operational
LEOCIRCULAR

当前视图

正在加载3D地球...

About Starlink 32437

Starlink 32437 (NORAD 63001) is a starlink constellation satellite (v2 mini) launched Feb 11, 2025 by SPXS of US. It operates in LEO, CIRCULAR orbit with a mass of 730.00 kg.

即将过境

Passes for default location (London). Set your location on the main map for personalized predictions.

高度历史

Loading altitude history...

两行轨道根数

1 63001U 25031W 26263.04078875 .00006644 00000-0 25069-3 0 9994
2 63001 42.9978 126.1812 0001160 275.4230 84.6490 15.27584838 90813
Epoch: Sep 20, 2026 • Age: 14 hours

当前状态

高度 482.8 km
远地点 / 近地点 N/A
速度 7.63 km/s
星下点 -1.32°S, 104.48°W
发射日期 Feb 11, 2025
运行时间 1.6 years
类型 internet

技术详情

分类 Payload
质量 730.00 kg
干质量 700.00 kg
长度 0.30 m
跨度 29.00 m
形状 ? Box + pan
制造商 SPXS
平台类型 Starlink V2M
阶段状态 In Orbit
所有者/国家 SPXS/US

Most Searched